Location: Dix Hills
(40.8048°N, 73.3362°W)
Time: 14:08:41
(UTC+00:00)

Daily predictions for brighter satellites

Satellite Brightness Start Highest point End
(mag) Time Altitude Azimuth Time Altitude Azimuth Time Altitude Azimuth
Cosmos 1689 Rocket 4.0 21:53:44 10° N 21:56:29 31° WNW 21:59:13 10° SW
CZ-4 R/B 3.2 21:56:27 10° ENE 21:57:08 10° ENE 21:57:49 10° NE
Cosmos 1536 4.5 21:55:02 10° NE 21:57:16 14° ENE 21:59:27 10° ESE
Cosmos 2237 Rocket 3.4 21:53:41 10° SSE 21:58:04 23° E 22:02:29 10° NE
Meteor 1-14 Rocket 4.5 21:53:22 10° N 21:59:19 83° W 22:05:07 10° S
Okean O Rocket 2.5 21:55:29 10° S 21:59:45 55° W 22:04:01 10° NNW
Cosmos 1331 Rocket 4.1 21:54:47 10° NNW 22:00:03 86° WSW 22:05:20 10° SSE
Cosmos 2322 Rocket 4.3 21:58:11 10° WSW 22:02:28 22° NW 22:06:47 10° N
Feng Yun 1-1 Rocket 4.2 21:57:37 10° SSE 22:02:54 58° ENE 22:08:11 10° N
Cosmos 371 Rocket 3.7 22:00:11 10° NNW 22:05:03 69° WSW 22:09:54 10° S
Cosmos 1602 3.9 22:01:31 10° N 22:05:24 81° W 22:09:16 10° S
ISS -1.9 22:04:28 10° NNW 22:06:48 17° NNE 22:08:57 11° ENE
SL-16 R/B 4.5 22:04:19 10° W 22:08:05 18° NW 22:11:52 10° N
CZ-4B R/B 4.3 22:06:03 10° NNW 22:08:14 16° WNW 22:10:25 10° WSW
Cosmos 1844 3.8 22:03:17 10° NNW 22:09:00 86° WSW 22:14:36 10° SSE
Lacrosse 5 rocket 1.7 22:05:49 10° SSW 22:10:03 51° SE 22:13:51 11° NE
USA 215 4.3 22:04:38 10° NE 22:10:27 36° NNW 22:16:16 10° W
Cosmos 1500 4.0 22:07:24 10° NNE 22:10:43 29° ENE 22:14:01 10° SE
Okean-O 3.2 22:06:55 10° SE 22:10:55 35° ENE 22:14:58 10° N
Cosmos 1862 Rocket 4.1 22:07:39 10° SSE 22:11:37 37° E 22:15:38 10° NNE
H-2A R/B 2.7 22:08:17 10° SSE 22:11:55 55° ENE 22:15:32 10° N
CENTAUR R/B 3.5 22:04:43 10° NW 22:12:55 79° WSW 22:21:39 10° SSE
Cosmos 1340 3.1 22:10:06 10° NNW 22:13:52 67° W 22:17:36 10° S
Cosmos 2219 Rocket 2.2 22:10:39 10° SSW 22:16:15 90° E 22:21:55 10° NNE
AQUARIUS 4.1 22:12:38 10° SSE 22:17:05 68° ENE 22:21:34 10° N
SL-4 R/B 2.4 22:16:49 10° WSW 22:20:24 49° NNW 22:23:47 13° NE
CORIOLIS 4.1 22:15:25 10° SSE 22:20:48 69° ENE 22:26:14 10° N
NOAA 12 4.2 22:17:54 10° SSE 22:23:04 54° ENE 22:28:13 10° N
BREEZE-M DEB (TANK) 3.2 22:20:39 10° WNW 22:25:52 32° N 22:27:30 18° ENE
Cosmos 1844 Rocket 3.8 22:20:38 10° NW 22:25:59 49° WSW 22:31:20 10° S
NOSS 0 Rocket 4.1 22:20:44 10° S 22:26:45 55° ESE 22:32:49 10° NNE
Cosmos 1707 Rocket 4.2 22:23:21 10° SSW 22:27:44 59° W 22:32:10 10° N
Cosmos 1980 4.0 22:22:36 10° S 22:27:55 45° ESE 22:33:06 11° NE
YAOGAN 6 3.5 22:25:55 10° SE 22:28:52 26° ENE 22:31:52 10° NNE
Shenzhou-11 Module 1.7 22:26:19 10° W 22:29:03 68° NNW 22:30:30 24° ENE
Aureole 1 Rocket 4.3 22:28:32 10° SE 22:29:23 12° ESE 22:29:23 12° ESE
STARLINK-46 3.2 22:28:25 10° WSW 22:31:05 49° NW 22:32:44 20° NE
Cosmos 1315 Rocket 4.4 22:28:22 10° SW 22:32:01 35° WNW 22:35:43 10° N
COBE Rocket 4.0 22:32:36 10° N 22:37:14 73° WNW 22:41:53 10° SSW
SL-8 R/B 3.9 22:32:55 10° WNW 22:37:45 75° SSW 22:42:34 10° SE
COSMOS 2428 3.2 22:33:00 10° SW 22:38:36 62° WNW 22:44:15 10° NNE
YAOGAN 3 4.5 22:36:25 10° SSE 22:40:45 73° ENE 22:45:06 10° N
CSL-04 Rocket 4.2 22:37:48 10° SE 22:42:25 32° ENE 22:47:03 10° N
BREEZE-M R/B 4.3 22:37:44 10° WNW 22:42:27 26° NNW 22:44:19 17° NNE
USA 267 4.0 22:37:09 10° SSE 22:43:33 56° SW 22:49:58 10° NW
Meteor 1-5 Rocket 4.2 22:38:52 10° N 22:44:28 85° W 22:49:50 10° S
Cosmos 1908 Rocket 4.0 22:44:55 10° N 22:49:03 38° ENE 22:53:08 10° SSE
COSMO-SKYMED 1 2.6 22:45:33 10° NNE 22:49:51 58° E 22:54:07 10° S
FengYun 1-2 T 4.2 22:46:21 10° SSE 22:51:43 60° ENE 22:57:08 10° N
ATLAS 3B R/B 3.5 22:45:17 10° NW 22:51:50 55° WSW 22:58:33 10° SSE
Cosmos 1666 3.0 22:52:06 10° N 22:55:38 39° ENE 22:59:09 10° SSE
Exosat Rocket 3.8 22:50:34 10° SSW 22:56:13 71° WNW 23:01:11 10° NNE
YAOGAN 1 2.9 22:53:11 10° SE 22:57:12 39° ENE 23:01:14 10° N
Nadezhda 4 Rocket 4.1 22:54:29 10° S 23:00:49 79° W 23:07:10 10° N
RESURS DK-1 3.7 22:58:47 10° SW 23:02:37 37° WNW 23:06:10 12° N
ERBS 3.4 23:01:45 10° NW 23:04:57 45° SW 23:08:05 10° SSE
Cosmos 2251 Rocket 3.8 23:00:09 10° SSW 23:05:26 68° WNW 23:10:37 11° NNE
USA 116 4.5 23:02:19 13° NNE 23:07:08 60° E 23:12:12 10° S
SeaSat 1 4.5 23:13:31 13° NNE 23:13:31 13° NNE 23:14:23 10° N
NOAA 11 4.4 23:06:59 10° SE 23:12:07 45° ENE 23:17:18 10° N
Cosmos 2278 Rocket 2.2 23:11:54 10° NNW 23:17:35 81° WSW 23:23:13 10° SSE
BREEZE-M DEB (TANK) 3.0 23:15:45 10° WNW 23:17:36 40° WSW 23:17:36 40° WSW
Okean 1-7 2.9 23:14:26 10° S 23:18:40 60° E 23:19:04 57° ENE
Atlas Centaur 2 4.3 23:16:02 10° WSW 23:23:02 33° SSW 23:29:49 12° SE
Cosmos 2026 Rocket 3.8 23:17:41 10° S 23:23:43 71° E 23:29:44 10° NNE
SL-16 R/B 2.3 23:22:54 10° S 23:28:20 49° ESE 23:28:36 49° E
Cosmos 292 Rocket 3.7 23:24:24 10° NNW 23:29:15 66° ENE 23:29:41 62° E
Envisat 4.2 23:25:40 10° S 23:30:28 42° W 23:35:17 10° NNW
Cosmos 2333 Rocket 4.2 23:26:04 10° WSW 23:30:42 25° NW 23:35:23 10° N
CZ-4 R/B 1.7 23:27:45 10° S 23:31:39 61° WSW 23:35:31 10° NNW
Cosmos 1536 4.1 23:30:06 10° NNW 23:33:54 40° W 23:37:38 10° SSW
Cosmos 614 Rocket 4.1 23:35:37 10° S 23:39:55 56° SE 23:39:55 56° SE
Cosmos 407 Rocket 3.7 23:36:39 10° S 23:40:55 54° SSE 23:40:55 54° SSE
Cosmos 2237 Rocket 3.0 23:36:16 10° SW 23:41:46 49° WNW 23:45:20 21° N
ISS -1.4 23:40:41 10° NW 23:41:52 20° NW 23:41:52 20° NW
OAO 2 Rocket 4.0 23:42:37 10° WSW 23:47:23 42° S 23:47:25 42° S
Lacrosse 5 rocket 3.1 23:45:53 10° W 23:49:24 25° NW 23:49:31 25° NNW
Cosmos 1703 Rocket 4.5 23:47:23 10° SSW 23:51:41 47° WNW 23:53:14 33° NNW
